Location: Columbia
(38.9520°N, 92.3340°W)
Time: 13:49:59
(UTC-05:00)

Cosmos 2219 Rocket - Visible Passes

Search period start: 28 March 2015 00:00
Search period end: 07 April 2015 00:00
Orbit: 830 x 845 km, 71.0° (Epoch: 28 March)

Date Brightness Start Highest point End Pass type
(mag) Time Alt. Az. Time Alt. Az. Time Alt. Az.
28 Mar 2.1 21:10:18 10° NNW 21:15:55 75° ENE 21:18:01 40° SE visible
28 Mar 4.6 22:56:34 10° WNW 22:59:18 13° W 22:59:47 13° WSW visible
29 Mar 2.1 20:54:01 10° NNW 20:59:37 69° ENE 21:02:50 26° SE visible
29 Mar 4.6 22:39:56 10° WNW 22:43:03 15° W 22:44:37 13° WSW visible
30 Mar 2.2 20:37:45 10° NNW 20:43:20 64° ENE 20:47:45 16° SE visible
30 Mar 4.6 22:23:22 10° WNW 22:26:48 16° W 22:29:33 11° SW visible
31 Mar 2.3 20:21:29 10° NNW 20:27:01 59° ENE 20:32:34 10° SE visible
31 Mar 4.5 22:06:50 10° WNW 22:10:33 17° W 22:14:00 10° SW visible
01 Apr 2.4 20:05:13 10° NNW 20:10:43 54° ENE 20:16:14 10° SE visible
01 Apr 4.5 21:50:21 10° WNW 21:54:17 19° WSW 21:58:01 10° SW visible
02 Apr 4.4 21:33:53 10° NW 21:38:02 21° WSW 21:42:00 10° SSW visible
03 Apr 4.4 21:17:26 10° NW 21:21:46 23° WSW 21:25:57 10° SSW visible
04 Apr 4.3 21:01:00 10° NW 21:05:31 24° WSW 21:09:53 10° SSW visible
05 Apr 4.3 20:44:35 10° NW 20:49:15 26° WSW 20:53:47 10° SSW visible
06 Apr 4.2 20:28:11 10° NW 20:32:59 29° WSW 20:37:41 10° SSW visible
